Location: Alafon
(8.4500°N, 4.2333°E)
Time: 17:52:13
(UTC+00:00)

Transit 2A - Pass Details

Date: 04 August 2021
Orbit: 595 x 964 km, 66.7° (Epoch: 18 September)

Event Time Altitude Azimuth Distance (km) Brightness Sun altitude
Rises 14:05:42 0° 7° (N) 3,473 9.5 55.7°
Reaches altitude 10° 14:08:59 10° 26° (NNE) 2,591 8.8 54.9°
Maximum altitude 14:13:02 18° 68° (ENE) 2,103 8.2 53.9°
Drops below altitude 10° 14:17:12 10° 110° (ESE) 2,681 8.6 53.0°
Sets 14:20:38 0° 127° (SE) 3,640 9.1 52.2°
